Back to catalog

DELTA 1 DEB

AliveSSO
NORAD 42646·DEBRIS·🇺🇸 United States

Launched Jun 12, 1975 from Vandenberg Space Force Base

Loading…

Next Passes (next 24 hours)

TLE

FreshSource: Space-Track

Epoch: Sep 11, 2026, 11:17 UTC

1 42646U 75052MF  26254.47040485  .00000061  00000-0  20262-3 0  9994
2 42646 100.0033 169.6477 0055557   9.8639 350.3564 13.36144386578592

Track DELTA 1 DEB in real time with AllMySat

Download on the App Store